FENGYUN 2F

Last updated on July 6, 2021, 3:22 p.m. UTC

1 38049U 12002A   21186.95646512 -.00000351  00000-0  00000-0 0  9995
2 38049   2.9587  82.0299 0002356  54.6574 243.8984  1.00275317 34768
UTC
Height (km)
Latitude
Longitude
Inclination
Orbital Period
UTC large
Height (km)
Speed (km/s)
/
Latitude / Longitude
Inclination (degrees)
Orbital Period (minutes)
Azimuth
Elevation
Range (km)
Doppler Factor
iOS Compass Heading
iOS Angle

Next 30 passes for location: Hong Kong

Rise time Rise Azimuth (degrees) Set time Set Azimuth (degrees) Duration Max altitude (degrees)

No matching passes for this satellites